User: anonymous   Login
Location: Austin
(30.3000°N, 97.7500°W)
Time: 04:16:08
(UTC-05:00)
Language:

USA 229 DEB - Orbit

View from above orbital plane
View from above orbital plane
View from above satellite
View from above satellite

Ground track
Ground track

The orbit data is extracted from the following two-line orbital elements,

1 37391U 11014B   24244.80576633 0.00000604  00000-0  83706-3 0    04
2 37391  63.4252 151.4590 0300499 356.8275   3.1247 13.40946767    07
Epoch (UTC): 31 August 2024 19:20:18
Eccentricity: 0.0300499
inclination: 63.4252°
perigee height: 881 km
apogee height: 1330 km
right ascension of ascending node: 151.4590°
argument of perigee: 356.8275°
revolutions per day: 13.40946767
mean anomaly at epoch: 3.1247°
orbit number at epoch: 0

The dashed part of the orbit path shows where the satellite is in the earth's shadow,  

DLR